Regional Weather Roundup
Issued by NWS

Home | Current Version | Previous Version | Text Only | Print | Product List | Glossary On
Versions: 1 2 3 4 5 6 7 8 9 10 11 12 13 14 15 16 17 18 19 20 21 22 23 24 25 26 27 28 29 30 31 32 33 34 35 36 37 38 39 40 41 42 43 44 45 46 47 48 49 50
000
ASUS43 KLSX 190957
RWRMO

WEATHER SUMMARY FOR MISSOURI
NATIONAL WEATHER SERVICE SPRINGFIELD MO
500 AM CDT THU OCT 19 2017

NOTE: "FAIR" INDICATES FEW OR NO CLOUDS BELOW 12,000 FEET WITH NO
       SIGNIFICANT WEATHER AND/OR OBSTRUCTIONS TO VISIBILITY.
       CURRENT SKY AND/OR WEATHER CONDITIONS ARE NOT AVAILABLE FOR
       CHILLICOTHE AND FARMINGTON.

MOZ001>031-035>038-043-044-053-054-191100-
...NORTHERN AND WESTERN MISSOURI...

CITY           SKY/WX    TMP DP  RH WIND       PRES   REMARKS
KANSAS CTY INT CLEAR     52  48  86 S7        30.07S
LEE`S SUMMIT   CLEAR     55  48  77 S9        30.09S
ST JOSEPH      FOG       43  43 100 CALM      30.06R VSB 1
CHILLICOTHE      N/A     48  47  96 CALM      30.09R

$$
MOZ066>068-077>081-088>096-101>105-191100-
...SOUTHWEST MISSOURI...

CITY           SKY/WX    TMP DP  RH WIND       PRES   REMARKS
SPRINGFIELD    CLEAR     50  46  86 SE8       30.14S
JOPLIN         CLEAR     54  49  83 S9        30.13S

$$
MOZ032>034-039>042-045>050-055>058-069>072-191100-
...CENTRAL MISSOURI...

CITY           SKY/WX    TMP DP  RH WIND       PRES   REMARKS
COLUMBIA       NOT AVBL
JEFFERSON CITY CLEAR     49  45  86 SE3       30.12S
ROLLA          CLEAR     54  48  80 S12       30.15S
SEDALIA        CLEAR     58  49  72 SW10      30.11F
WARRENSBURG    CLEAR     52  46  82 S6        30.10S

$$
MOZ051-052-059>065-191100-
...EAST CENTRAL MISSOURI...

CITY           SKY/WX    TMP DP  RH WIND       PRES   REMARKS
ST LOUIS INTL  CLEAR     58  49  72 S3        30.14R

$$
MOZ072>076-082>087-097>100-106>115-191100-
...SOUTH CENTRAL AND SOUTHEAST MISSOURI...

CITY           SKY/WX    TMP DP  RH WIND       PRES   REMARKS
CAPE GIRARDEAU CLEAR     47  45  93 CALM      30.21R
POPLAR BLUFF   CLEAR     45  44  97 N3        30.19R
WEST PLAINS    CLEAR     49  46  90 CALM      30.19R

$$



USA.gov is the U.S. government's official web portal to all federal, state and local government web resources and services.